| time (UTC) | temp F | wind direction | speed knots | gust knots | rain 1hr in | rain 24hr in | rain mn in | humidity % | barometer mb |
| 20260906223045 | 96 | 136 | 4.3 | 9.6 | 0.00 | 0.00 | 0.00 | 49 | 1006.8 |
| 20260906221544 | 96 | 165 | 4.3 | 10.4 | 0.00 | 0.00 | 0.00 | 50 | 1006.9 |
| 20260906220043 | 96 | 123 | 4.3 | 13.9 | 0.00 | 0.00 | 0.00 | 50 | 1006.9 |
| 20260906214547 | 95 | 165 | 3.5 | 7.8 | 0.00 | 0.00 | 0.00 | 50 | 1007.0 |
| 20260906213040 | 96 | 136 | 4.3 | 12.2 | 0.00 | 0.00 | 0.00 | 49 | 1007.2 |
| 20260906211539 | 97 | 134 | 1.7 | 4.3 | 0.00 | 0.00 | 0.00 | 49 | 1007.2 |
| 20260906210042 | 97 | 155 | 5.2 | 9.6 | 0.00 | 0.00 | 0.00 | 49 | 1007.5 |
| 20260906204537 | 97 | 148 | 6.1 | 9.6 | 0.00 | 0.00 | 0.00 | 49 | 1007.7 |
| 20260906203032 | 96 | 166 | 5.2 | 11.3 | 0.00 | 0.00 | 0.00 | 50 | 1007.8 |
| 20260906201530 | 96 | 103 | 4.3 | 9.6 | 0.00 | 0.00 | 0.00 | 52 | 1007.8 |
| 20260906200028 | 96 | 121 | 2.6 | 6.1 | 0.00 | 0.00 | 0.00 | 53 | 1008.0 |
| 20260906194527 | 95 | 116 | 1.7 | 8.7 | 0.00 | 0.00 | 0.00 | 55 | 1008.3 |
| 20260906193021 | 93 | 92 | 1.7 | 4.3 | 0.00 | 0.00 | 0.00 | 58 | 1008.3 |
| 20260906191520 | 93 | 27 | 0.9 | 2.6 | 0.00 | 0.00 | 0.00 | 58 | 1008.4 |
| 20260906190019 | 92 | 57 | 1.7 | 3.5 | 0.00 | 0.00 | 0.00 | 58 | 1008.7 |
| 20260906184521 | 92 | 14 | 2.6 | 4.3 | 0.00 | 0.00 | 0.00 | 59 | 1008.9 |
| 20260906183025 | 92 | 42 | 0.9 | 4.3 | 0.00 | 0.00 | 0.00 | 59 | 1009.1 |
| 20260906181543 | 92 | 82 | 0.9 | 3.5 | 0.00 | 0.00 | 0.00 | 59 | 1009.3 |
| 20260906180014 | 93 | 84 | 0.9 | 5.2 | 0.00 | 0.00 | 0.00 | 61 | 1009.5 |
| 20260906174515 | 93 | 103 | 1.7 | 4.3 | 0.00 | 0.00 | 0.00 | 61 | 1009.8 |
| 20260906173011 | 93 | 345 | 1.7 | 4.3 | 0.00 | 0.00 | 0.00 | 63 | 1010.0 |
| 20260906171508 | 93 | 94 | 1.7 | 5.2 | 0.00 | 0.00 | 0.00 | 64 | 1010.3 |
| 20260906170014 | 92 | 130 | 1.7 | 5.2 | 0.00 | 0.00 | 0.00 | 67 | 1010.4 |
| 20260906164559 | 91 | 34 | 2.6 | 5.2 | 0.00 | 0.00 | 0.00 | 68 | 1010.5 |
| 20260906163102 | 90 | 109 | 0.9 | 6.1 | 0.00 | 0.00 | 0.00 | 70 | 1010.6 |
| 20260906161556 | 89 | 350 | 1.7 | 7.0 | 0.00 | 0.00 | 0.00 | 72 | 1010.5 |
| 20260906160049 | 89 | 105 | 0.0 | 2.6 | 0.00 | 0.00 | 0.00 | 75 | 1010.6 |
| 20260906154549 | 87 | 105 | 1.7 | 3.5 | 0.00 | 0.00 | 0.00 | 75 | 1010.6 |
| 20260906153042 | 86 | 105 | 1.7 | 3.5 | 0.00 | 0.00 | 0.00 | 78 | 1010.6 |
| 20260906151537 | 85 | 105 | 1.7 | 2.6 | 0.00 | 0.00 | 0.00 | 80 | 1010.6 |
| 20260906150034 | 83 | 105 | 0.0 | 2.6 | 0.00 | 0.00 | 0.00 | 81 | 1010.5 |
| 20260906144530 | 81 | 105 | 0.0 | 1.7 | 0.00 | 0.00 | 0.00 | 81 | 1010.7 |
| 20260906143027 | 80 | 109 | 0.0 | 3.5 | 0.00 | 0.00 | 0.00 | 81 | 1010.6 |
| 20260906141526 | 78 | 126 | 0.0 | 0.0 | 0.00 | 0.00 | 0.00 | 81 | 1010.6 |
| 20260906140025 | 77 | 123 | 0.9 | 2.6 | 0.00 | 0.00 | 0.00 | 81 | 1010.5 |
| 20260906134524 | 75 | 122 | 0.0 | 1.7 | 0.00 | 0.00 | 0.00 | 81 | 1010.6 |
| 20260906133029 | 74 | 122 | 0.0 | 1.7 | 0.00 | 0.00 | 0.00 | 81 | 1010.7 |
| 20260906131521 | 72 | 124 | 0.0 | 0.0 | 0.00 | 0.00 | 0.00 | 79 | 1010.5 |
| 20260906130023 | 71 | 119 | 0.0 | 0.0 | 0.00 | 0.00 | 0.00 | 79 | 1010.3 |
| 20260906124517 | 71 | 116 | 0.0 | 0.0 | 0.00 | 0.00 | 0.00 | 78 | 1010.3 |
| 20260906123021 | 71 | 114 | 0.0 | 0.0 | 0.00 | 0.00 | 0.00 | 77 | 1010.0 |
| 20260906121512 | 71 | 117 | 0.0 | 0.0 | 0.00 | 0.00 | 0.00 | 77 | 1009.8 |
| 20260906120010 | 72 | 119 | 0.0 | 0.0 | 0.00 | 0.00 | 0.00 | 76 | 1009.6 |
| 20260906114524 | 72 | 121 | 0.0 | 0.0 | 0.00 | 0.00 | 0.00 | 76 | 1009.4 |
| 20260906113007 | 72 | 117 | 0.0 | 0.0 | 0.00 | 0.00 | 0.00 | 76 | 1009.3 |
| 20260906111517 | 72 | 119 | 0.0 | 0.0 | 0.00 | 0.00 | 0.00 | 75 | 1009.2 |
| 20260906110006 | 73 | 116 | 0.0 | 0.0 | 0.00 | 0.00 | 0.00 | 75 | 1009.0 |
| 20260906104506 | 73 | 115 | 0.0 | 0.0 | 0.00 | 0.00 | 0.00 | 75 | 1009.0 |
| 20260906103002 | 73 | 117 | 0.0 | 0.0 | 0.00 | 0.00 | 0.00 | 74 | 1008.9 |
| 20260906101604 | 73 | 115 | 0.0 | 0.0 | 0.00 | 0.00 | 0.00 | 74 | 1008.8 |
| 20260906100059 | 74 | 114 | 0.0 | 0.0 | 0.00 | 0.00 | 0.00 | 73 | 1008.7 |
| 20260906094557 | 74 | 111 | 0.0 | 0.0 | 0.00 | 0.00 | 0.00 | 73 | 1008.6 |
| 20260906093057 | 74 | 111 | 0.0 | 0.0 | 0.00 | 0.00 | 0.00 | 73 | 1008.6 |
| 20260906091555 | 75 | 111 | 0.0 | 0.9 | 0.00 | 0.00 | 0.00 | 72 | 1008.6 |
| 20260906090053 | 75 | 111 | 0.0 | 0.0 | 0.00 | 0.00 | 0.00 | 72 | 1008.7 |
| 20260906084553 | 75 | 111 | 0.0 | 0.0 | 0.00 | 0.00 | 0.00 | 71 | 1008.7 |
| 20260906083053 | 75 | 111 | 0.0 | 0.0 | 0.00 | 0.00 | 0.00 | 70 | 1008.5 |
| 20260906081554 | 75 | 111 | 0.0 | 0.0 | 0.00 | 0.00 | 0.00 | 70 | 1008.6 |
| 20260906080048 | 76 | 111 | 0.0 | 0.9 | 0.00 | 0.00 | 0.00 | 69 | 1008.6 |
| 20260906074546 | 76 | 111 | 0.0 | 0.0 | 0.00 | 0.00 | 0.00 | 69 | 1008.9 |
| 20260906073045 | 77 | 112 | 0.0 | 0.0 | 0.00 | 0.00 | 0.00 | 68 | 1008.8 |
| 20260906071540 | 78 | 119 | 0.0 | 0.0 | 0.00 | 0.00 | 0.00 | 68 | 1009.0 |
| 20260906070039 | 78 | 116 | 0.0 | 0.0 | 0.00 | 0.00 | 0.00 | 67 | 1009.2 |
| 20260906064538 | 79 | 113 | 0.0 | 0.0 | 0.00 | 0.00 | 0.00 | 67 | 1009.1 |
| 20260906063034 | 79 | 112 | 0.0 | 0.9 | 0.00 | 0.00 | 0.00 | 66 | 1009.4 |
| 20260906061532 | 80 | 112 | 0.0 | 0.0 | 0.00 | 0.00 | 0.00 | 66 | 1009.6 |
| 20260906060036 | 80 | 112 | 0.0 | 0.9 | 0.00 | 0.00 | 0.00 | 66 | 1009.7 |
| 20260906054530 | 81 | 112 | 0.9 | 2.6 | 0.00 | 0.00 | 0.00 | 66 | 1009.6 |
| 20260906053031 | 80 | 112 | 0.9 | 2.6 | 0.00 | 0.00 | 0.00 | 65 | 1009.4 |
| 20260906051524 | 80 | 113 | 0.0 | 0.9 | 0.00 | 0.00 | 0.00 | 62 | 1009.4 |
| 20260906050020 | 81 | 112 | 0.0 | 0.0 | 0.00 | 0.00 | 0.00 | 62 | 1009.7 |
| 20260906044520 | 82 | 111 | 0.0 | 0.9 | 0.00 | 0.00 | 0.00 | 61 | 1009.5 |
| 20260906043020 | 83 | 113 | 0.0 | 0.0 | 0.00 | 0.00 | 0.00 | 61 | 1009.4 |
| 20260906041526 | 84 | 114 | 0.0 | 1.7 | 0.00 | 0.00 | 0.00 | 61 | 1009.5 |
| 20260906040028 | 84 | 123 | 0.0 | 0.9 | 0.00 | 0.00 | 0.00 | 61 | 1009.4 |
| 20260906034527 | 85 | 127 | 0.0 | 2.6 | 0.00 | 0.00 | 0.00 | 61 | 1009.3 |
| 20260906033018 | 85 | 119 | 0.9 | 3.5 | 0.00 | 0.00 | 0.00 | 60 | 1009.2 |
| 20260906031531 | 86 | 117 | 1.7 | 3.5 | 0.00 | 0.00 | 0.00 | 59 | 1008.9 |
| 20260906030016 | 87 | 121 | 1.7 | 5.2 | 0.00 | 0.00 | 0.00 | 58 | 1008.9 |
| 20260906024516 | 88 | 119 | 2.6 | 7.0 | 0.00 | 0.00 | 0.00 | 57 | 1008.8 |
| 20260906023014 | 88 | 114 | 3.5 | 7.8 | 0.00 | 0.00 | 0.00 | 55 | 1008.5 |
| 20260906021515 | 89 | 116 | 2.6 | 7.0 | 0.00 | 0.00 | 0.00 | 53 | 1008.4 |
| 20260906020013 | 89 | 151 | 0.9 | 4.3 | 0.00 | 0.00 | 0.00 | 49 | 1008.1 |
| 20260906014519 | 89 | 151 | 0.9 | 4.3 | 0.00 | 0.00 | 0.00 | 48 | 1007.8 |
| 20260906013012 | 91 | 150 | 0.0 | 0.9 | 0.00 | 0.00 | 0.00 | 46 | 1007.6 |
| 20260906011511 | 91 | 149 | 0.0 | 4.3 | 0.00 | 0.00 | 0.00 | 46 | 1007.2 |
| 20260906010012 | 92 | 155 | 0.9 | 3.5 | 0.00 | 0.00 | 0.00 | 46 | 1007.2 |
| 20260906004510 | 93 | 142 | 0.0 | 3.5 | 0.00 | 0.00 | 0.00 | 45 | 1007.1 |
| 20260906003010 | 94 | 143 | 0.0 | 2.6 | 0.00 | 0.00 | 0.00 | 44 | 1007.0 |
| 20260906001508 | 95 | 147 | 1.7 | 4.3 | 0.00 | 0.00 | 0.00 | 44 | 1007.0 |
| 20260906000006 | 95 | 141 | 0.9 | 6.1 | 0.00 | 0.00 | 0.00 | 44 | 1007.0 |
| 20260905234506 | 96 | 111 | 0.9 | 7.8 | 0.00 | 0.00 | 0.00 | 44 | 1006.9 |
| 20260905233006 | 96 | 119 | 1.7 | 7.8 | 0.00 | 0.00 | 0.00 | 44 | 1006.9 |
| 20260905231506 | 96 | 130 | 3.5 | 7.0 | 0.00 | 0.00 | 0.00 | 44 | 1006.9 |
| 20260905230005 | 96 | 128 | 2.6 | 7.0 | 0.00 | 0.00 | 0.00 | 44 | 1006.9 |